This demonstration page uses our WeatherBlox Daily Observations layout. Learn more.

Hourly Observations for May 8, 2018

Temp ( °F °C ) Dew Point ( °F °C ) Humidity (%) Winds ( mph kmh ) Pressure ( in mb ) Visibility ( mi km ) Precip ( " mm )
12:54 am 00:54 Clear 71 21.7 46 7.8 41 41 SE 13 20 29.93 1014 10 16.0934 0 0
1:54 am 01:54 Clear 72 22.2 46 7.8 40 40 SE 16 26 29.92 1013 10 16.0934 0 0
2:54 am 02:54 Clear 69 20.6 47 8.3 45 45 SSE 9 15 29.91 1013 10 16.0934 0 0
3:54 am 03:54 Clear 69 20.6 48 8.9 47 47 SE 13 20 29.89 1012 10 16.0934 0 0
4:54 am 04:54 Clear 67 19.4 49 9.4 53 53 SE 16 26 29.88 1012 10 16.0934 0 0
5:54 am 05:54 Clear 66 18.9 49 9.4 54 54 SSE 12 19 29.86 1011 10 16.0934 0 0
6:54 am 06:54 Sunny 65 18.3 50 10 59 59 SE 14 22 29.85 1011 10 16.0934 0 0
7:54 am 07:54 Sunny 67 19.4 50 10 55 55 SE 13 20 29.85 1011 10 16.0934 0 0
8:54 am 08:54 Sunny 71 21.7 52 11.1 51 51 SSE 13 20 29.84 1011 10 16.0934 0 0
9:54 am 09:54 Sunny 75 23.9 54 12.2 48 48 SSE 10 17 29.83 1010 10 16.0934 0 0
10:54 am 10:54 Sunny 78 25.6 54 12.2 43 43 SE 10 17 29.82 1010 10 16.0934 0 0
11:54 am 11:54 Sunny 79 26.1 56 13.3 45 45 SE 13 20 29.8 1009 10 16.0934 0 0
12:54 pm 12:54 Sunny 80 26.7 57 13.9 45 45 SE 9 15 29.79 1009 10 16.0934 0 0
1:54 pm 13:54 Sunny 83 28.3 56 13.3 40 40 undefined N/A 29.77 1008 10 16.0934 0 0
2:54 pm 14:54 Sunny 84 28.9 56 13.3 38 38 S 10 17 29.76 1008 10 16.0934 0 0
3:54 pm 15:54 Sunny 84 28.9 58 14.4 41 41 S 7 11 29.74 1007 10 16.0934 0 0
4:54 pm 16:54 Sunny 84 28.9 56 13.3 38 38 WSW 7 11 29.73 1007 10 16.0934 0 0
5:54 pm 17:54 Sunny 85 29.4 57 13.9 39 39 NNW 6 9 29.72 1007 10 16.0934 0 0
6:54 pm 18:54 Sunny 86 30 56 13.3 36 36 NW 6 9 29.72 1007 10 16.0934 0 0
7:54 pm 19:54 Mostly Cloudy 82 27.8 57 13.9 42 42 N 6 9 29.73 1007 10 16.0934 0 0
8:54 pm 20:54 Clear 78 25.6 54 12.2 43 43 N 9 15 29.75 1007 10 16.0934 0 0
9:54 pm 21:54 Clear 76 24.4 54 12.2 47 47 VRB 5 7 29.75 1008 10 16.0934 0 0
10:54 pm 22:54 Clear 73 22.8 54 12.2 51 51 WNW 5 7 29.76 1008 10 16.0934 0 0

Powered by AerisWeather